[[{"header":{"parameterUnit":"m.s-1","parameterCategory":1,"la1":30.2991,"la2":30.254,"lo1":-89.0895,"lo2":-89.0444,"dy":0.0017,"dx":0.0017,"nx":28,"ny":28,"refTime":"2025-12-26T09:00:00:Z","depth":0,"parameterNumber":2,"parameterNumberName":"U-component_of_WINDS"},"data":[0,0,0,0,0,0,0,0,0,0,0,0,0,0,0,0,0,0,0,0,0,0,0,0,0,0,0,0,0,0,0,0,0,0,0,0,0,0,0,0,0,0,0,0,0,0,0,0,0,0,0,0,0,0,0,0,0,0,0.9053,0.9054,0,0.9128,0.9129,0.913,0.9094,0.9092,0.909,0.9088,0.917,0.9174,0.9178,0,0,0,0,0,0,0,0,0,0,0,0,0,0.8885,0.8888,0.9053,0.9054,0.9055,0.9128,0.9129,0.913,0.9094,0.9092,0.909,0.9087,0.9168,0.9173,0.9178,0,0,0,0,0,0,0,0,0,0,0,0,0,0.8959,0.8889,0.9053,0.9046,0.9046,0.9128,0.9129,0.913,0.9095,0.9092,0.9089,0.9086,0.9167,0.9173,0.9179,0.9273,0,0,0.9197,0.9199,0,0,0,0,0,0,0,0,0.8955,0.8965,0.9046,0.9047,0.9047,0.9099,0.9099,0.9178,0.9096,0.9076,0.9088,0.9085,0.9149,0.9156,0.9177,0.9277,0.928,0.9197,0.9201,0.9203,0.9205,0,0,0,0,0,0,0,0.895,0.8962,0.9083,0.9047,0.9048,0.9041,0.9048,0.9114,0.9128,0.9078,0.9075,0.9085,0.9148,0.9171,0.9178,0.9282,0.9197,0.9202,0.9206,0.9208,0.9466,0.9469,0,0,0,0,0,0,0.8944,0.8958,0.9081,0.9085,0.8993,0.9046,0.9054,0.9085,0.9127,0.9131,0.9087,0.9083,0.9162,0.9171,0.9181,0.9296,0.9203,0.9209,0.9212,0.9463,0.9467,0.947,0,0,0,0,0,0,0.8941,0.8955,0.9078,0.9021,0.9036,0.9052,0.9087,0.9088,0.911,0.9134,0.9137,0.9107,0.916,0.9173,0.9251,0.9299,0.9212,0.9217,0.9459,0.9464,0.9469,0.9527,0,0,0,0,0,0,0.8936,0.8954,0.8989,0.9022,0.9039,0.9145,0.909,0.9092,0.912,0.9115,0.9154,0.9157,0.9159,0.9242,0.9257,0.9305,0.9222,0.9455,0.9461,0.9467,0.9521,0.9533,0.9544,0,0,0,0,0,0.893,0.9003,0.8991,0.9006,0.9082,0.9147,0.9157,0.9156,0.9124,0.916,0.9176,0.9156,0.9291,0.925,0.9266,0.9318,0.9452,0.946,0.9467,0.9516,0.9531,0.9543,0,0,0,0,0,0,0.8976,0.9007,0.8994,0.9079,0.9111,0.9141,0.9186,0.9172,0.9215,0.9208,0.9207,0.9216,0.9298,0.9315,0.927,0.9413,0.9367,0.9378,0.9398,0.9413,0.9424,0.9419,0.9227,0,0,0,0,0,0.8996,0.9045,0.9069,0.9142,0.9159,0.917,0.9198,0.9195,0.9228,0.9242,0.9263,0.9297,0.9348,0.9381,0.9428,0.9523,0.9532,0.9566,0.9577,0.9587,0.9597,0.9651,0.9667,0.9495,0.9495,0.9495,0,0,0.9038,0.9061,0.9092,0.9152,0.9176,0.9229,0.9181,0.9238,0.9278,0.9251,0.9326,0.9343,0.9382,0.9469,0.9508,0.9486,0.9646,0.9596,0.9603,0.9609,0.966,0.9676,0.9691,0.95,0.9499,0.9498,0,0,0.9142,0.9163,0.9227,0.9252,0.9289,0.9296,0.9312,0.9345,0.9354,0.9429,0.9411,0.9459,0.9545,0.9574,0.96,0.9716,0.9701,0.9732,0.9793,0.9845,0.9859,0.9871,0.9915,0.993,0.9741,0.9742,0.9742,0,0.919,0.9267,0.9262,0.9321,0.9349,0.9326,0.9393,0.9418,0.9469,0.949,0.9463,0.9572,0.9596,0.9691,0.972,0.9741,0.9761,0.9728,0.9857,0.9869,0.988,0.9922,0.9938,0.9745,0.9745,0.9744,0.9744,0,0.9325,0.9379,0.9426,0.9475,0.9509,0.9571,0.9579,0.9613,0.9607,0.9618,0.9697,0.9725,0.9778,0.98,0.9795,0.9896,0.9881,0.9856,0.981,0.99,0.994,0.9955,0.9751,0.9749,0.9748,0.9747,0,0,0.946,0.9507,0.9524,0.9547,0.9587,0.9629,0.9692,0.9743,0.9774,0.981,0.9864,0.9938,0.9916,0.9945,0.9944,0.9989,1.0083,0.9959,0.996,0.9983,1.0198,1.0218,1.0237,1.0072,1.0075,1.0077,1.0196,0,0.9568,0.9676,0.9675,0.9775,0.9826,0.9806,0.9861,0.9892,0.9904,0.9951,0.9964,1.0018,0.9982,1.0001,1.0045,1.0062,1.0127,1.0053,1.0125,1.0128,1.0118,1.0257,1.0278,1.0388,1.0211,1.0213,1.0215,0,0.9709,0.9749,0.9855,0.9889,0.991,0.9959,1.0007,1.0051,1.0087,1.0093,1.0127,1.0118,1.0184,1.0135,1.0228,1.0178,1.0207,1.0221,1.0225,1.0233,1.0178,1.0271,1.0423,1.044,1.0239,1.0237,1.0235,0,0.9799,0.988,0.9954,0.9974,1.0015,1.0051,1.007,1.0103,1.0135,1.0177,1.0198,1.0248,1.0277,1.0317,1.0323,1.0286,1.0417,1.0368,1.0426,1.0426,1.0456,1.0454,1.0616,1.0471,1.0471,1.0471,1.047,0,0.9921,0.9987,0.9996,1.0042,1.0116,1.0115,1.0189,1.0205,1.0235,1.0286,1.0271,1.0319,1.0323,1.0373,1.0379,1.0456,1.0468,1.0477,1.0478,1.0479,1.0479,1.05,1.0493,1.0475,1.0474,1.0473,1.0472,0,1.0035,1.0043,1.0123,1.0156,1.0166,1.0219,1.0248,1.0293,1.0303,1.0368,1.0383,1.04,1.0459,1.0469,1.0537,1.0541,1.0634,1.0626,1.0622,1.0622,1.068,1.0676,1.0864,1.0889,1.0725,1.0727,1.0728,0,1.0113,1.0164,1.0202,1.0234,1.0254,1.0306,1.0339,1.034,1.0375,1.0421,1.0461,1.0518,1.0563,1.0658,1.0678,1.0732,1.0726,1.0789,1.0734,1.0735,1.073,1.0728,1.0734,1.08,1.0801,1.0803,1.0804,0,1.0252,1.0254,1.03,1.0349,1.0388,1.0427,1.0463,1.0491,1.0497,1.0538,1.0597,1.0632,1.0702,1.076,1.0813,1.0835,1.0822,1.0821,1.0838,1.0841,1.0837,1.0842,1.0653,1.0817,1.0816,1.0815,1.0814,1.0813,1.0352,1.0397,1.0431,1.0484,1.0511,1.0546,1.0591,1.0607,1.0656,1.0713,1.0711,1.0777,1.0814,1.0884,1.0909,1.0962,1.0943,1.0966,1.0973,1.0979,1.0986,1.0827,1.0972,1.0971,1.0971,1.0971,1.097,0,1.0491,1.0513,1.0561,1.0613,1.0656,1.0638,1.0678,1.0715,1.0773,1.0808,1.0853,1.0923,1.0979,1.1003,1.1059,1.1097,1.1093,1.1112,1.111,1.1116,1.0999,1.098,1.1115,1.1115,1.1115,1.1114,1.1114,1.1114,1.0569,1.0645,1.0651,1.0741,1.0762,1.0826,1.0851,1.0884,1.0912,1.099,1.1036,1.1051,1.1083,1.1142,1.1193,1.1199,1.1222,1.1244,1.1248,1.1138,1.1124,1.111,1.1092,1.1248,1.1249,1.1361,1.1362,1.1363]},{"header":{"parameterUnit":"m.s-1","parameterCategory":1,"la1":30.2991,"la2":30.254,"lo1":-89.0895,"lo2":-89.0444,"dy":0.0017,"dx":0.0017,"nx":28,"ny":28,"refTime":"2025-12-26T09:00:00:Z","depth":0,"parameterNumber":3,"parameterNumberName":"V-component_of_WINDS"},"data":[0,0,0,0,0,0,0,0,0,0,0,0,0,0,0,0,0,0,0,0,0,0,0,0,0,0,0,0,0,0,0,0,0,0,0,0,0,0,0,0,0,0,0,0,0,0,0,0,0,0,0,0,0,0,0,0,0,0,3.2404,3.2405,0,3.2559,3.256,3.2562,3.2553,3.2551,3.2549,3.2546,3.2707,3.2713,3.2719,0,0,0,0,0,0,0,0,0,0,0,0,0,3.2101,3.2107,3.2403,3.2405,3.2407,3.2558,3.2561,3.2563,3.2554,3.2551,3.2548,3.2545,3.2704,3.2712,3.272,0,0,0,0,0,0,0,0,0,0,0,0,0,3.2242,3.2109,3.2403,3.2421,3.2424,3.2558,3.2561,3.2563,3.2554,3.2551,3.2547,3.2544,3.2702,3.2711,3.2721,3.2847,0,0,3.275,3.2754,0,0,0,0,0,0,0,0,3.2234,3.2253,3.2416,3.242,3.2424,3.2533,3.2513,3.2658,3.2555,3.2505,3.2546,3.2543,3.2652,3.2665,3.2702,3.2855,3.2862,3.2751,3.2756,3.2761,3.2763,0,0,0,0,0,0,0,3.2224,3.2246,3.2465,3.2419,3.2423,3.2422,3.2438,3.254,3.2595,3.2509,3.2509,3.2527,3.2653,3.2692,3.2705,3.2864,3.275,3.2759,3.2765,3.2768,3.3132,3.3135,0,0,0,0,0,0,3.221,3.2238,3.246,3.2469,3.2319,3.243,3.2448,3.2501,3.2594,3.2605,3.253,3.2526,3.2678,3.2694,3.2711,3.2868,3.276,3.2769,3.2775,3.3128,3.3133,3.3137,0,0,0,0,0,0,3.2204,3.223,3.2454,3.2354,3.2382,3.2439,3.2499,3.2506,3.2546,3.261,3.262,3.256,3.2676,3.2698,3.2814,3.2873,3.2774,3.2782,3.3123,3.3129,3.3135,3.3181,0,0,0,0,0,0,3.2195,3.2228,3.2276,3.2355,3.2388,3.2554,3.2502,3.2512,3.2562,3.2559,3.2641,3.2651,3.2675,3.28,3.2824,3.2885,3.279,3.3118,3.3126,3.3133,3.3174,3.3188,3.3199,0,0,0,0,0,3.2185,3.2282,3.2279,3.2305,3.2449,3.2557,3.2576,3.2601,3.2567,3.2616,3.2658,3.2649,3.2862,3.2812,3.2838,3.2903,3.3115,3.3124,3.3132,3.3169,3.3185,3.3199,0,0,0,0,0,0,3.2209,3.2293,3.229,3.2416,3.2479,3.2555,3.2618,3.2616,3.2691,3.2685,3.2713,3.2731,3.2849,3.2887,3.283,3.3032,3.2984,3.2999,3.3003,3.3019,3.3031,3.302,3.2798,0,0,0,0,0,3.2229,3.2309,3.2378,3.2483,3.2515,3.2561,3.2609,3.2623,3.269,3.2717,3.2767,3.2833,3.2915,3.2969,3.3047,3.3179,3.3198,3.3237,3.3249,3.3259,3.3272,3.3347,3.3366,3.3166,3.3166,3.3166,0,0,3.2271,3.2327,3.2376,3.249,3.254,3.2624,3.2584,3.2674,3.2737,3.2731,3.2845,3.2883,3.2959,3.3084,3.3142,3.312,3.3331,3.327,3.3277,3.3286,3.3358,3.3377,3.3394,3.3172,3.3171,3.317,0,0,3.2392,3.2441,3.2535,3.2587,3.2665,3.2695,3.2717,3.2794,3.282,3.2935,3.2933,3.3008,3.3148,3.3203,3.3249,3.3392,3.3387,3.3416,3.3482,3.3555,3.3571,3.3585,3.3639,3.3657,3.3429,3.3429,3.3429,0,3.2435,3.2561,3.2584,3.2675,3.2726,3.2724,3.2821,3.287,3.297,3.3006,3.2979,3.3157,3.3207,3.3347,3.3382,3.3418,3.3447,3.3408,3.3566,3.3581,3.3594,3.3646,3.3666,3.3432,3.3432,3.3431,3.3431,0,3.2611,3.2698,3.2765,3.2862,3.292,3.3013,3.3052,3.3108,3.3117,3.3151,3.3268,3.3329,3.3421,3.3455,3.3464,3.3597,3.3581,3.356,3.3513,3.3616,3.3666,3.3685,3.3437,3.3436,3.3435,3.3434,0,0,3.2752,3.2862,3.2886,3.2931,3.3017,3.3085,3.3179,3.327,3.3319,3.3387,3.3468,3.3587,3.3569,3.3622,3.3637,3.3701,3.3814,3.3672,3.3675,3.3699,3.3967,3.3984,3.4007,3.381,3.3814,3.3817,3.3962,0,3.2884,3.3051,3.3075,3.3222,3.3305,3.3305,3.3387,3.3449,3.3483,3.3558,3.3595,3.3681,3.3649,3.3681,3.3744,3.3786,3.3868,3.3776,3.3888,3.3891,3.3872,3.4032,3.405,3.4184,3.3981,3.3984,3.3986,0,3.306,3.3134,3.329,3.3367,3.3403,3.3476,3.3562,3.3633,3.3705,3.3725,3.3784,3.3792,3.3891,3.3838,3.3976,3.3913,3.3959,3.3987,3.3993,3.4007,3.3947,3.4053,3.4227,3.4248,3.4016,3.4014,3.4012,0,3.3151,3.329,3.3402,3.344,3.3532,3.3584,3.3624,3.3692,3.3746,3.3821,3.3856,3.3942,3.3989,3.4056,3.4087,3.4045,3.4224,3.4173,3.4245,3.4245,3.4285,3.4283,3.4473,3.4311,3.431,3.431,3.4309,0,3.3297,3.3393,3.3445,3.3514,3.3622,3.3649,3.3756,3.3795,3.3856,3.3933,3.3937,3.401,3.4046,3.4125,3.4149,3.4262,3.4282,3.4303,3.4309,3.4304,3.4302,3.4337,3.433,3.4315,3.4314,3.4313,3.4312,0,3.3418,3.3456,3.3579,3.3656,3.3677,3.3754,3.382,3.3888,3.3921,3.402,3.4045,3.4097,3.419,3.4227,3.4341,3.4358,3.4488,3.4485,3.4464,3.4467,3.4539,3.4532,3.476,3.4793,3.4606,3.4608,3.4609,0,3.351,3.3585,3.367,3.3722,3.3765,3.3849,3.3904,3.3934,3.3991,3.4079,3.4137,3.423,3.4306,3.4455,3.4504,3.4591,3.4593,3.4666,3.4606,3.46,3.4598,3.4594,3.4603,3.4678,3.468,3.4682,3.4683,0,3.3671,3.3686,3.3765,3.3852,3.3918,3.3987,3.4055,3.4098,3.4138,3.4202,3.4298,3.4357,3.4474,3.4567,3.4657,3.47,3.47,3.4701,3.4723,3.4721,3.4707,3.4719,3.4498,3.4696,3.4695,3.4694,3.4693,3.4693,3.3783,3.385,3.3921,3.401,3.4064,3.4127,3.4196,3.4238,3.4318,3.4416,3.4428,3.4531,3.4602,3.4724,3.477,3.4852,3.4833,3.4864,3.4873,3.4881,3.4887,3.4692,3.4868,3.4868,3.4867,3.4867,3.4867,0,3.3946,3.3992,3.4073,3.4169,3.4239,3.4231,3.4306,3.4366,3.4456,3.4522,3.4598,3.4709,3.4799,3.4855,3.4947,3.5002,3.5004,3.5025,3.5023,3.5034,3.4897,3.4871,3.5022,3.5022,3.5022,3.5022,3.5022,3.5022,3.404,3.4154,3.4178,3.432,3.4365,3.4466,3.451,3.457,3.4623,3.4747,3.4822,3.4858,3.4921,3.5017,3.5101,3.5115,3.515,3.5173,3.5187,3.5059,3.5043,3.5028,3.5003,3.518,3.518,3.5317,3.5318,3.5319]}]]